Flag for Germany Weather past 2 weeks in Frankenthal (Pfalz), Rhineland-Palatinate, Germany

Now
63 °F

Broken clouds.


Feels Like: 63 °F
Forecast: 60 / 75 °F
Wind: 5 mph from South

Location: Baden Wurttemberg - Neuostheim

Current Time: Jul 13, 2014 at 9:41:42 AM

Latest Report: Jul 13, 2014 at 8:50 AM


Visibility: N/A

Pressure: 29.86 "Hg

Humidity: 88%

Dew point: 59 °F

Location of Frankenthal (Pfalz)Location

Historic Weather in Frankenthal (Pfalz) — Graph

°F

Frankenthal (Pfalz) temperature yesterday

Maximum temperature yesterday: 73 °F (at 2:50 PM)
Minimum temperature yesterday: 66 °F (at 7:20 AM)
Average temperature yesterday: 70 °F

Past Weeks' High & Low Weather Summary

 TemperatureHumidityPressure
High88 °F (Jul 4, 2:50 PM)100% (Jun 29, 7:50 AM)30.24 "Hg (Jun 29, 7:50 AM)
Low52 °F (Jul 1, 5:50 AM)21% (Jul 4, 3:20 PM)29.71 "Hg (Jun 29, 6:20 AM)
Average68 °F63%29.94 "Hg
* Reported Jun 28 8:20 AM — Jul 13 8:20 AM, Frankenthal (Pfalz), Weather by CustomWeather, © 2014

Note: Actual official high and low records may vary slightly from our data, if they occured in-between our weather recording intervals... More about our weather records

Advertising

Frankenthal (Pfalz) weather history for previous 24 hours

 ConditionsComfort  
Time TempWeatherWind HumidityBarometerVisibility
8:20 AM
Jul 13
63 °FLight rain. Partly sunny.5 mph88%29.89 "HgN/A
7:50 AM63 °FLight rain. More clouds than sun.3 mph88%29.89 "HgN/A
7:50 PM
Jul 12
70 °FSunny.8 mph69%29.89 "Hg10 mi
7:20 PM70 °FPassing clouds.6 mph73%29.86 "HgN/A
6:50 PM70 °FScattered showers. Clear.8 mph69%29.86 "HgN/A
6:20 PM70 °FScattered showers. Clear.10 mph69%29.86 "HgN/A
5:50 PM72 °FSunny.12 mph69%29.86 "Hg10 mi
5:20 PM72 °FScattered showers. Clear.9 mph69%29.86 "HgN/A
4:50 PM72 °FScattered showers. Clear.10 mph69%29.86 "HgN/A
4:20 PM72 °FSunny.12 mph69%29.86 "Hg10 mi
3:50 PM73 °FPartly sunny.13 mph61%29.86 "HgN/A
3:20 PM73 °FBroken clouds.10 mph65%29.86 "HgN/A
2:50 PM73 °FPartly sunny.7 mph65%29.89 "HgN/A
2:20 PM72 °FScattered showers. Broken clouds.7 mph69%29.89 "HgN/A
1:50 PM72 °FScattered showers. More clouds than sun.6 mph73%29.89 "HgN/A
1:20 PM70 °FScattered showers. Broken clouds.6 mph78%29.89 "Hg5 mi
12:50 PM70 °FBroken clouds.6 mph78%29.89 "Hg5 mi
12:20 PM68 °FPartly sunny.7 mph83%29.92 "Hg5 mi
11:50 AM66 °FPartly sunny.9 mph88%29.92 "Hg5 mi
11:20 AM66 °FDrizzle. Partly sunny.9 mph88%29.92 "Hg5 mi
10:50 AM66 °FLight rain. Broken clouds.9 mph88%29.92 "Hg4 mi
10:20 AM68 °FPartly sunny.7 mph78%29.92 "Hg5 mi
9:50 AM70 °FPartly sunny.6 mph73%29.92 "Hg5 mi
9:20 AM68 °FBroken clouds.5 mph78%29.92 "Hg5 mi
Weather by CustomWeather, © 2014

See weather overviewHow to use our weather pages